TimeMDT,TemperatureF,Dew PointF,Humidity,Sea Level PressureIn,VisibilityMPH,Wind Direction,Wind SpeedMPH,Gust SpeedMPH,PrecipitationIn,Events,Conditions,WindDirDegrees,DateUTC
12:53 AM,46.9,33.1,59,29.65,10.0,NW,8.1,-,N/A,,Clear,320,2012-10-21 06:53:00
1:53 AM,45.0,34.0,65,29.69,10.0,NNW,8.1,-,N/A,,Mostly Cloudy,330,2012-10-21 07:53:00
2:53 AM,43.0,33.1,68,29.71,10.0,NW,6.9,-,N/A,,Clear,320,2012-10-21 08:53:00
3:53 AM,43.0,32.0,65,29.75,10.0,North,4.6,-,N/A,,Partly Cloudy,350,2012-10-21 09:53:00
4:53 AM,42.1,32.0,67,29.78,10.0,NW,4.6,-,N/A,,Mostly Cloudy,320,2012-10-21 10:53:00
5:53 AM,41.0,30.0,65,29.79,10.0,Calm,Calm,-,N/A,,Mostly Cloudy,0,2012-10-21 11:53:00
6:53 AM,39.9,32.0,73,29.81,10.0,NE,3.5,-,N/A,,Partly Cloudy,50,2012-10-21 12:53:00
7:53 AM,39.0,32.0,76,29.82,10.0,NE,3.5,-,N/A,,Clear,50,2012-10-21 13:53:00
8:53 AM,39.9,32.0,73,29.86,10.0,NNE,8.1,-,N/A,,Clear,30,2012-10-21 14:53:00
9:53 AM,41.0,33.1,73,29.86,10.0,North,4.6,-,N/A,,Clear,360,2012-10-21 15:53:00
10:53 AM,42.1,33.1,70,29.87,10.0,North,5.8,-,N/A,,Partly Cloudy,360,2012-10-21 16:53:00
11:53 AM,43.0,33.1,68,29.87,10.0,Calm,Calm,-,N/A,,Clear,0,2012-10-21 17:53:00
12:53 PM,45.0,33.1,63,29.87,10.0,Calm,Calm,-,N/A,,Scattered Clouds,0,2012-10-21 18:53:00
1:53 PM,46.9,33.1,59,29.85,10.0,North,3.5,-,N/A,,Overcast,10,2012-10-21 19:53:00
2:53 PM,48.0,33.1,56,29.82,10.0,SSE,8.1,-,N/A,,Overcast,150,2012-10-21 20:53:00
3:53 PM,50.0,34.0,54,29.81,10.0,ESE,6.9,-,N/A,,Scattered Clouds,110,2012-10-21 21:53:00
4:53 PM,50.0,35.1,57,29.80,10.0,East,3.5,-,N/A,,Clear,90,2012-10-21 22:53:00
5:53 PM,48.9,35.1,59,29.81,10.0,North,4.6,-,N/A,,Clear,350,2012-10-21 23:53:00
6:53 PM,46.9,34.0,61,29.82,10.0,North,3.5,-,N/A,,Clear,350,2012-10-22 00:53:00
7:53 PM,46.9,33.1,59,29.86,10.0,Calm,Calm,-,N/A,,Mostly Cloudy,0,2012-10-22 01:53:00
8:53 PM,44.1,32.0,63,29.87,10.0,Calm,Calm,-,N/A,,Partly Cloudy,0,2012-10-22 02:53:00
9:53 PM,41.0,30.9,67,29.87,10.0,Calm,Calm,-,N/A,,Scattered Clouds,0,2012-10-22 03:53:00
10:53 PM,37.9,28.9,70,29.86,10.0,SE,5.8,-,N/A,,Clear,130,2012-10-22 04:53:00
11:53 PM,37.0,30.0,76,29.87,10.0,West,3.5,-,N/A,,Clear,270,2012-10-22 05:53:00